Regional Weather Roundup
Issued by NWS

Home | Current Version | Previous Version | Text Only | Print | Product List | Glossary Off
Versions: 1 2 3 4 5 6 7 8 9 10 11 12 13 14 15 16 17 18 19 20 21 22 23 24 25 26 27 28 29 30 31 32 33 34 35 36 37 38 39 40 41 42 43 44 45 46 47 48 49 50

164
ASUS43 KFSD 131302
RWRSD

WEATHER ROUNDUP FOR SOUTH DAKOTA
NATIONAL WEATHER SERVICE SIOUX FALLS SD
700 AM CST SAT FEB 13 2016

NOTE: "FAIR" INDICATES FEW OR NO CLOUDS BELOW 12,000 FEET WITH NO
SIGNIFICANT WEATHER AND/OR OBSTRUCTIONS TO VISIBILITY.


SDZ001>005-009-010-012>017-131400-
NORTHWEST AND NORTH CENTRAL SOUTH DAKOTA

CITY           SKY/WX    TMP DP  RH WIND       PRES   REMARKS
BUFFALO          N/A     19  17  92 SE13      29.97F WCI   6
FAITH            N/A     13   9  84 SE21G28   30.11F WCI  -5
MOBRIDGE       CLOUDY     9   0  67 SE18      30.28F WCI -10
$$

SDZ012>016-024>037-041>051-057-063-072>074-131400-
SOUTHWEST AND SOUTH CENTRAL SOUTH DAKOTA

CITY           SKY/WX    TMP DP  RH WIND       PRES   REMARKS
RAPID CTY ARPT CLOUDY    29  27  92 SE8       30.03F WCI  21
PIERRE         CLOUDY    14   8  77 SE12      30.30S WCI   0
CUSTER         CLOUDY    30  27  88 W8        29.99F WCI  22
ELLSWORTH AFB  CLOUDY    30  29  96 SE9       30.02F WCI  21
PHILIP         CLOUDY    24  20  84 SE17G24   30.15F WCI  11
PINE RIDGE     CLOUDY    33  29  85 S13G23    30.07F WCI  24
WINNER         CLOUDY    19  12  74 SE20G32   30.28F WCI   3
$$

SDZ004>011-016>023-039-040-131400-
NORTHEAST SOUTH DAKOTA

CITY           SKY/WX    TMP DP  RH WIND       PRES   REMARKS
ABERDEEN       CLOUDY     6  -7  54 SE12      30.47F WCI  -9
WATERTOWN      CLOUDY     0 -10  63 SE8       30.46F WCI -14
BROOKINGS      CLOUDY    -2  -9  72 SE9       30.49F WCI -18
SISSETON         N/A     -3  -9  75 S10       30.54F WCI -20
$$

SDZ017-020-022-023-036>040-048>070-131400-
SOUTHEAST SOUTH DAKOTA

CITY           SKY/WX    TMP DP  RH WIND       PRES   REMARKS
SIOUX FALLS    CLOUDY     1  -8  66 SE12      30.53F WCI -16
HURON          CLOUDY     7  -3  64 SE12      30.48S WCI  -8
MITCHELL       CLOUDY     8   0  69 SE17      30.49F WCI -10
YANKTON        CLOUDY     7   0  72 SE10      30.53F WCI  -8
$$

ABBREVIATIONS USED IN REMARKS
   TC - TEMPERATURE IN CELSIUS
  WCI - WIND CHILL INDEX
   HX - HEAT INDEX
  VSB - VISIBILITY





USA.gov is the U.S. government's official web portal to all federal, state and local government web resources and services.